Time,TemperatureF,DewpointF,PressureIn,WindDirection,WindDirectionDegrees,WindSpeedMPH,WindSpeedGustMPH,Humidity,HourlyPrecipIn,Conditions,Clouds,dailyrainin,SoftwareType,DateUTC
2013-05-13 00:01:00,43.0,23.0,-100.00,ESE,111,1.0,3.0,44,0.00,,,0.00,,2013-05-13 07:01:00,
2013-05-13 00:11:00,43.0,23.0,-100.00,ESE,111,1.0,3.0,44,0.00,,,0.00,,2013-05-13 07:11:00,
2013-05-13 00:42:00,43.0,24.0,-100.00,East,87,1.0,3.0,46,0.00,,,0.00,,2013-05-13 07:42:00,
2013-05-13 00:52:00,43.0,24.0,-100.00,East,87,1.0,3.0,46,0.00,,,0.00,,2013-05-13 07:52:00,
2013-05-13 01:02:00,43.0,24.0,-100.00,East,87,1.0,3.0,46,0.00,,,0.00,,2013-05-13 08:02:00,
2013-05-13 01:11:00,43.0,24.0,-100.00,East,87,1.0,3.0,46,0.00,,,0.00,,2013-05-13 08:11:00,
2013-05-13 01:42:00,43.0,24.0,-100.00,ESE,107,2.0,4.0,46,0.00,,,0.00,,2013-05-13 08:42:00,
2013-05-13 01:52:00,43.0,24.0,-100.00,ESE,107,2.0,4.0,46,0.00,,,0.00,,2013-05-13 08:52:00,
2013-05-13 02:01:00,43.0,24.0,-100.00,ESE,107,2.0,4.0,46,0.00,,,0.00,,2013-05-13 09:01:00,
2013-05-13 02:11:00,43.0,24.0,-100.00,ESE,107,2.0,4.0,46,0.00,,,0.00,,2013-05-13 09:11:00,
2013-05-13 02:42:00,41.0,24.0,-100.00,SSE,151,1.0,4.0,50,0.00,,,0.00,,2013-05-13 09:42:00,
2013-05-13 02:52:00,41.0,24.0,-100.00,SSE,151,1.0,4.0,50,0.00,,,0.00,,2013-05-13 09:52:00,
2013-05-13 03:02:00,41.0,24.0,-100.00,SSE,151,1.0,4.0,50,0.00,,,0.00,,2013-05-13 10:02:00,
2013-05-13 03:12:00,41.0,24.0,-100.00,SSE,151,1.0,4.0,50,0.00,,,0.00,,2013-05-13 10:12:00,
2013-05-13 03:33:00,42.0,25.0,-100.00,SE,145,2.0,4.0,50,0.00,,,0.00,,2013-05-13 10:33:00,
2013-05-13 03:43:00,42.0,25.0,-100.00,SE,145,2.0,4.0,50,0.00,,,0.00,,2013-05-13 10:43:00,
2013-05-13 03:52:00,42.0,25.0,-100.00,SE,145,2.0,4.0,50,0.00,,,0.00,,2013-05-13 10:52:00,
2013-05-13 04:02:00,42.0,25.0,-100.00,SE,145,2.0,4.0,50,0.00,,,0.00,,2013-05-13 11:02:00,
2013-05-13 04:12:00,42.0,25.0,-100.00,SE,145,2.0,4.0,50,0.00,,,0.00,,2013-05-13 11:12:00,
2013-05-13 04:32:00,42.0,24.0,-100.00,ESE,115,2.0,5.0,48,0.00,,,0.00,,2013-05-13 11:32:00,
2013-05-13 04:42:00,42.0,24.0,-100.00,ESE,115,2.0,5.0,48,0.00,,,0.00,,2013-05-13 11:42:00,
2013-05-13 04:52:00,42.0,24.0,-100.00,ESE,115,2.0,5.0,48,0.00,,,0.00,,2013-05-13 11:52:00,
2013-05-13 05:01:00,42.0,24.0,-100.00,ESE,115,2.0,5.0,48,0.00,,,0.00,,2013-05-13 12:01:00,
2013-05-13 05:11:00,42.0,24.0,-100.00,ESE,115,2.0,5.0,48,0.00,,,0.00,,2013-05-13 12:11:00,
2013-05-13 05:42:00,40.0,23.0,-100.00,ESE,122,1.0,4.0,50,0.00,,,0.00,,2013-05-13 12:42:00,
2013-05-13 05:52:00,40.0,23.0,-100.00,ESE,122,1.0,4.0,50,0.00,,,0.00,,2013-05-13 12:52:00,
2013-05-13 06:01:00,40.0,23.0,-100.00,ESE,122,1.0,4.0,50,0.00,,,0.00,,2013-05-13 13:01:00,
2013-05-13 06:11:00,40.0,23.0,-100.00,ESE,122,1.0,4.0,50,0.00,,,0.00,,2013-05-13 13:11:00,
2013-05-13 06:42:00,42.0,27.0,-100.00,East,101,2.0,4.0,55,0.00,,,-99.99,,2013-05-13 13:42:00,
2013-05-13 06:52:00,42.0,27.0,-100.00,East,101,2.0,4.0,55,0.00,,,-99.99,,2013-05-13 13:52:00,
2013-05-13 07:01:00,42.0,27.0,-100.00,East,101,2.0,4.0,55,0.00,,,-99.99,,2013-05-13 14:01:00,
2013-05-13 07:11:00,42.0,27.0,-100.00,East,101,2.0,4.0,55,0.00,,,-99.99,,2013-05-13 14:11:00,
2013-05-13 07:42:00,56.0,38.0,-100.00,ESE,104,1.0,4.0,50,0.00,,,0.00,,2013-05-13 14:42:00,
2013-05-13 08:42:00,72.0,29.0,-100.00,North,350,2.0,4.0,20,0.00,,,0.00,,2013-05-13 15:42:00,
2013-05-13 09:33:00,73.0,24.0,-100.00,NNW,340,6.0,11.0,16,0.00,,,0.00,,2013-05-13 16:33:00,
2013-05-13 09:43:00,73.0,24.0,-100.00,NNW,340,6.0,11.0,16,0.00,,,0.00,,2013-05-13 16:43:00,
2013-05-13 09:52:00,73.0,24.0,-100.00,NNW,340,6.0,11.0,16,0.00,,,0.00,,2013-05-13 16:52:00,
2013-05-13 10:02:00,73.0,24.0,-100.00,NNW,340,6.0,11.0,16,0.00,,,0.00,,2013-05-13 17:02:00,
2013-05-13 10:12:00,73.0,24.0,-100.00,NNW,340,6.0,11.0,16,0.00,,,0.00,,2013-05-13 17:12:00,
2013-05-13 10:42:00,74.0,26.0,-100.00,WSW,242,6.0,13.0,17,0.00,,,0.00,,2013-05-13 17:42:00,
2013-05-13 10:54:00,74.0,26.0,-100.00,WSW,242,6.0,13.0,17,0.00,,,0.00,,2013-05-13 17:54:00,
2013-05-13 11:03:00,74.0,26.0,-100.00,WSW,242,6.0,13.0,17,0.00,,,0.00,,2013-05-13 18:03:00,
2013-05-13 11:12:00,74.0,26.0,-100.00,WSW,242,6.0,13.0,17,0.00,,,0.00,,2013-05-13 18:12:00,
2013-05-13 11:42:00,75.0,27.0,-100.00,WSW,238,6.0,14.0,17,0.00,,,0.00,,2013-05-13 18:42:00,
2013-05-13 11:52:00,75.0,27.0,-100.00,WSW,238,6.0,14.0,17,0.00,,,0.00,,2013-05-13 18:52:00,
2013-05-13 12:01:00,75.0,27.0,-100.00,WSW,238,6.0,14.0,17,0.00,,,0.00,,2013-05-13 19:01:00,
2013-05-13 12:11:00,75.0,27.0,-100.00,WSW,238,6.0,14.0,17,0.00,,,0.00,,2013-05-13 19:11:00,
2013-05-13 12:44:00,76.0,29.0,-100.00,WSW,249,7.0,16.0,18,0.00,,,0.00,,2013-05-13 19:44:00,
2013-05-13 12:53:00,76.0,29.0,-100.00,WSW,249,7.0,16.0,18,0.00,,,0.00,,2013-05-13 19:53:00,
2013-05-13 13:01:00,76.0,29.0,-100.00,WSW,249,7.0,16.0,18,0.00,,,0.00,,2013-05-13 20:01:00,
2013-05-13 13:11:00,76.0,29.0,-100.00,WSW,249,7.0,16.0,18,0.00,,,0.00,,2013-05-13 20:11:00,
2013-05-13 13:34:00,77.0,27.0,-100.00,SSW,207,7.0,17.0,16,0.00,,,0.00,,2013-05-13 20:34:00,
2013-05-13 13:44:00,77.0,27.0,-100.00,SSW,207,7.0,17.0,16,0.00,,,0.00,,2013-05-13 20:44:00,
2013-05-13 13:53:00,77.0,27.0,-100.00,SSW,207,7.0,17.0,16,0.00,,,0.00,,2013-05-13 20:53:00,
2013-05-13 14:02:00,77.0,27.0,-100.00,SSW,207,7.0,17.0,16,0.00,,,0.00,,2013-05-13 21:02:00,
2013-05-13 14:14:00,77.0,27.0,-100.00,SSW,207,7.0,17.0,16,0.00,,,0.00,,2013-05-13 21:14:00,
2013-05-13 14:43:00,78.0,25.0,-100.00,South,170,6.0,17.0,14,0.00,,,0.00,,2013-05-13 21:43:00,
2013-05-13 14:53:00,78.0,25.0,-100.00,South,170,6.0,17.0,14,0.00,,,0.00,,2013-05-13 21:53:00,
2013-05-13 15:02:00,78.0,25.0,-100.00,South,170,6.0,17.0,14,0.00,,,0.00,,2013-05-13 22:02:00,
2013-05-13 15:12:00,78.0,25.0,-100.00,South,170,6.0,17.0,14,0.00,,,0.00,,2013-05-13 22:12:00,
2013-05-13 15:43:00,78.0,23.0,-100.00,West,259,5.0,14.0,13,0.00,,,0.00,,2013-05-13 22:43:00,
2013-05-13 15:52:00,78.0,23.0,-100.00,West,259,5.0,14.0,13,0.00,,,0.00,,2013-05-13 22:52:00,
2013-05-13 16:01:00,78.0,23.0,-100.00,West,259,5.0,14.0,13,0.00,,,0.00,,2013-05-13 23:01:00,
2013-05-13 16:12:00,78.0,23.0,-100.00,West,259,5.0,14.0,13,0.00,,,0.00,,2013-05-13 23:12:00,
2013-05-13 16:42:00,79.0,24.0,-100.00,West,266,8.0,16.0,13,0.00,,,0.00,,2013-05-13 23:42:00,
2013-05-13 16:54:00,79.0,24.0,-100.00,West,266,8.0,16.0,13,0.00,,,0.00,,2013-05-13 23:54:00,
2013-05-13 17:02:00,79.0,24.0,-100.00,West,266,8.0,16.0,13,0.00,,,0.00,,2013-05-14 00:02:00,
2013-05-13 17:12:00,79.0,24.0,-100.00,West,266,8.0,16.0,13,0.00,,,0.00,,2013-05-14 00:12:00,
2013-05-13 17:42:00,79.0,24.0,-100.00,NW,304,8.0,16.0,13,0.00,,,0.00,,2013-05-14 00:42:00,
2013-05-13 17:52:00,79.0,24.0,-100.00,NW,304,8.0,16.0,13,0.00,,,0.00,,2013-05-14 00:52:00,
2013-05-13 18:01:00,79.0,24.0,-100.00,NW,304,8.0,16.0,13,0.00,,,0.00,,2013-05-14 01:01:00,
2013-05-13 18:11:00,79.0,24.0,-100.00,NW,304,8.0,16.0,13,0.00,,,0.00,,2013-05-14 01:11:00,
2013-05-13 18:32:00,75.0,21.0,-100.00,West,268,4.0,13.0,13,0.00,,,0.00,,2013-05-14 01:32:00,
2013-05-13 18:43:00,75.0,21.0,-100.00,West,268,4.0,13.0,13,0.00,,,0.00,,2013-05-14 01:43:00,
2013-05-13 18:53:00,75.0,21.0,-100.00,West,268,4.0,13.0,13,0.00,,,0.00,,2013-05-14 01:53:00,
2013-05-13 19:02:00,75.0,21.0,-100.00,West,268,4.0,13.0,13,0.00,,,0.00,,2013-05-14 02:02:00,
2013-05-13 19:11:00,75.0,21.0,-100.00,West,268,4.0,13.0,13,0.00,,,0.00,,2013-05-14 02:11:00,
2013-05-13 19:32:00,65.0,23.0,-100.00,SE,142,4.0,5.0,20,0.00,,,0.00,,2013-05-14 02:32:00,
2013-05-13 20:01:00,65.0,23.0,-100.00,SE,142,4.0,5.0,20,0.00,,,0.00,,2013-05-14 03:01:00,
2013-05-13 20:11:00,65.0,23.0,-100.00,SE,142,4.0,5.0,20,0.00,,,0.00,,2013-05-14 03:11:00,
2013-05-13 20:42:00,59.0,28.0,-100.00,SE,141,4.0,5.0,30,0.00,,,0.00,,2013-05-14 03:42:00,
2013-05-13 20:53:00,59.0,28.0,-100.00,SE,141,4.0,5.0,30,0.00,,,0.00,,2013-05-14 03:53:00,
2013-05-13 21:12:00,59.0,28.0,-100.00,SE,141,4.0,5.0,30,0.00,,,0.00,,2013-05-14 04:12:00,
2013-05-13 21:32:00,57.0,25.0,-100.00,SE,124,2.0,5.0,29,0.00,,,0.00,,2013-05-14 04:32:00,
2013-05-13 21:43:00,57.0,25.0,-100.00,SE,124,2.0,5.0,29,0.00,,,0.00,,2013-05-14 04:43:00,
2013-05-13 21:53:00,57.0,25.0,-100.00,SE,124,2.0,5.0,29,0.00,,,0.00,,2013-05-14 04:53:00,
2013-05-13 22:01:00,57.0,25.0,-100.00,SE,124,2.0,5.0,29,0.00,,,0.00,,2013-05-14 05:01:00,
2013-05-13 22:12:00,57.0,25.0,-100.00,SE,124,2.0,5.0,29,0.00,,,0.00,,2013-05-14 05:12:00,
2013-05-13 22:32:00,57.0,29.0,-100.00,SE,132,3.0,4.0,34,0.00,,,-99.99,,2013-05-14 05:32:00,
2013-05-13 22:42:00,57.0,29.0,-100.00,SE,132,3.0,4.0,34,0.00,,,-99.99,,2013-05-14 05:42:00,
2013-05-13 22:52:00,57.0,29.0,-100.00,SE,132,3.0,4.0,34,0.00,,,-99.99,,2013-05-14 05:52:00,
2013-05-13 23:01:00,57.0,29.0,-100.00,SE,132,3.0,4.0,34,0.00,,,-99.99,,2013-05-14 06:01:00,
2013-05-13 23:12:00,57.0,29.0,-100.00,SE,132,3.0,4.0,34,0.00,,,-99.99,,2013-05-14 06:12:00,
2013-05-13 23:42:00,59.0,24.0,-100.00,SSE,157,4.0,8.0,26,0.00,,,0.00,,2013-05-14 06:42:00,
2013-05-13 23:52:00,59.0,24.0,-100.00,SSE,157,4.0,8.0,26,0.00,,,0.00,,2013-05-14 06:52:00,